{"data":{"norad_id":64292,"epoch":"2026-09-20T16:40:53.625504Z","epoch_age_seconds":121131,"freshness":"FRESH","line1":"1 64292U 25123B   26263.69506511  .00014863  00000+0  52039-3 0  9991","line2":"2 64292  70.0002  60.5844 0003672 273.1433  86.9322 15.29582177 72109","mean_motion":15.29582177,"eccentricity":0.0003672,"inclination_deg":70.0002,"raan_deg":60.5844,"arg_perigee_deg":273.1433,"mean_anomaly_deg":86.9322,"bstar":0.00052039,"rev_number":7210,"period_min":94.143356378818,"perigee_km":474.54316994431,"apogee_km":479.57762691371,"semimajor_km":6855.197398429,"source":"CELESTRAK","updated_at":"2026-09-21T09:00:35.287667Z"}}